Regional Weather Roundup
Issued by NWS

Home | Current Version | Previous Version | Graphics & Text | Print | Product List | Glossary On
Versions: 1 2 3 4 5 6 7 8 9 10 11 12 13 14 15 16 17 18 19 20 21 22 23 24 25 26 27 28 29 30 31 32 33 34 35 36 37 38 39 40 41 42 43 44 45 46 47 48 49 50
000
ASUS43 KFSD 310210
RWRSD

WEATHER ROUNDUP FOR SOUTH DAKOTA
NATIONAL WEATHER SERVICE SIOUX FALLS SD
900 PM CDT THU JUL 30 2015

NOTE: "FAIR" INDICATES FEW OR NO CLOUDS BELOW 12,000 FEET WITH NO
SIGNIFICANT WEATHER AND/OR OBSTRUCTIONS TO VISIBILITY.


SDZ001>005-009-010-012>017-310300-
NORTHWEST AND NORTH CENTRAL SOUTH DAKOTA

CITY           SKY/WX    TMP DP  RH WIND       PRES   REMARKS
BUFFALO          N/A     76  49  38 E12       30.12S
FAITH            N/A     78  46  32 NE10      30.15R
MOBRIDGE       CLEAR     75  55  49 NE6       30.09S
$$

SDZ012>016-024>037-041>051-057-063-072>074-310300-
SOUTHWEST AND SOUTH CENTRAL SOUTH DAKOTA

CITY           SKY/WX    TMP DP  RH WIND       PRES   REMARKS
RAPID CTY ARPT CLEAR     79  48  33 SW3       30.19F
PIERRE         CLEAR     77  53  43 NE9       30.08R
CUSTER         CLEAR     70  45  40 E6        30.35S
ELLSWORTH AFB  CLEAR     80  53  39 SW3       30.18F
PHILIP         CLEAR     81  53  37 S3        30.12F
PINE RIDGE     CLEAR     75  53  46 NE6       30.20S
SPEARFISH      FAIR      68  50  52 S12       30.24F
WINNER         FAIR      79  56  45 E7        30.13R
$$

SDZ004>011-016>023-039-040-310300-
NORTHEAST SOUTH DAKOTA

CITY           SKY/WX    TMP DP  RH WIND       PRES   REMARKS
ABERDEEN       CLEAR     75  57  53 N7        30.08S
WATERTOWN      CLEAR     75  58  55 NW6       30.09R
BROOKINGS      CLEAR     75  63  64 W3        30.10S
SISSETON         N/A     70  62  76 NW6       30.05R
$$

SDZ017-020-022-023-036>040-048>070-310300-
SOUTHEAST SOUTH DAKOTA

CITY           SKY/WX    TMP DP  RH WIND       PRES   REMARKS
SIOUX FALLS    PTCLDY    76  61  59 W3        30.09S
HURON          CLEAR     79  62  56 NW3       30.07R
CHAMBERLAIN    CLEAR     74  64  70 CALM      30.09F
MITCHELL       CLEAR     79  62  56 S5        30.08F
YANKTON        CLEAR     79  63  57 NE6       30.08R
$$

ABBREVIATIONS USED IN REMARKS
   TC - TEMPERATURE IN CELSIUS
  WCI - WIND CHILL INDEX
   HX - HEAT INDEX
  VSB - VISIBILITY



USA.gov is the U.S. government's official web portal to all federal, state and local government web resources and services.